Time,TemperatureF,DewpointF,PressureIn,WindDirection,WindDirectionDegrees,WindSpeedMPH,WindSpeedGustMPH,Humidity,HourlyPrecipIn,Conditions,Clouds,dailyrainin,SoftwareType,DateUTC
2013-06-07 00:03:00,58.0,56.0,30.01,ENE,78,1.0,3.0,92,0.00,,,0.01,,2013-06-07 04:03:00,
2013-06-07 00:12:00,58.0,56.0,30.01,ENE,78,1.0,3.0,92,0.00,,,0.01,,2013-06-07 04:12:00,
2013-06-07 00:23:00,58.0,56.0,30.01,ENE,65,0.0,6.0,92,0.00,,,0.00,,2013-06-07 04:23:00,
2013-06-07 00:33:00,58.0,56.0,30.00,NE,50,1.0,4.0,92,0.00,,,0.00,,2013-06-07 04:33:00,
2013-06-07 00:42:00,58.0,56.0,30.00,NE,50,1.0,4.0,92,0.00,,,0.00,,2013-06-07 04:42:00,
2013-06-07 00:53:00,58.0,56.0,29.99,East,80,0.0,3.0,92,0.01,,,0.01,,2013-06-07 04:53:00,
2013-06-07 01:03:00,58.0,56.0,29.98,NE,34,0.0,4.0,92,0.01,,,0.01,,2013-06-07 05:03:00,
2013-06-07 01:12:00,58.0,56.0,29.98,NE,34,0.0,4.0,92,0.01,,,0.01,,2013-06-07 05:12:00,
2013-06-07 01:22:00,58.0,56.0,29.98,ENE,75,0.0,3.0,92,0.01,,,0.01,,2013-06-07 05:22:00,
2013-06-07 01:32:00,58.0,56.0,29.97,East,91,0.0,2.0,93,0.01,,,0.02,,2013-06-07 05:32:00,
2013-06-07 01:42:00,58.0,56.0,29.97,East,91,0.0,2.0,93,0.01,,,0.02,,2013-06-07 05:42:00,
2013-06-07 01:52:00,58.0,56.0,29.97,East,95,0.0,5.0,93,0.01,,,0.02,,2013-06-07 05:52:00,
2013-06-07 02:02:00,58.0,56.0,29.96,ENE,67,0.0,5.0,93,0.01,,,0.02,,2013-06-07 06:02:00,
2013-06-07 02:12:00,58.0,56.0,29.96,ENE,67,0.0,5.0,93,0.01,,,0.02,,2013-06-07 06:12:00,
2013-06-07 02:22:00,58.0,56.0,29.96,East,97,1.0,4.0,93,0.00,,,0.02,,2013-06-07 06:22:00,
2013-06-07 02:32:00,58.0,56.0,29.96,East,92,0.0,3.0,93,0.00,,,0.02,,2013-06-07 06:32:00,
2013-06-07 02:42:00,58.0,56.0,29.96,East,92,0.0,3.0,93,0.00,,,0.02,,2013-06-07 06:42:00,
2013-06-07 02:52:00,58.0,56.0,29.96,East,94,1.0,5.0,93,0.01,,,0.03,,2013-06-07 06:52:00,
2013-06-07 03:02:00,58.0,56.0,29.96,NE,52,0.0,6.0,93,0.02,,,0.04,,2013-06-07 07:02:00,
2013-06-07 03:12:00,58.0,56.0,29.96,NE,52,0.0,6.0,93,0.02,,,0.04,,2013-06-07 07:12:00,
2013-06-07 03:22:00,58.0,56.0,29.95,SE,128,0.0,3.0,93,0.02,,,0.04,,2013-06-07 07:22:00,
2013-06-07 03:32:00,59.0,57.0,29.95,West,261,0.0,4.0,93,0.01,,,0.05,,2013-06-07 07:32:00,
2013-06-07 03:42:00,59.0,57.0,29.95,West,261,0.0,4.0,93,0.01,,,0.05,,2013-06-07 07:42:00,
2013-06-07 03:52:00,59.0,57.0,29.94,SSE,158,0.0,6.0,94,0.02,,,0.06,,2013-06-07 07:52:00,
2013-06-07 04:02:00,59.0,57.0,29.94,NNE,24,0.0,4.0,94,0.04,,,0.08,,2013-06-07 08:02:00,
2013-06-07 04:12:00,59.0,57.0,29.94,NNE,24,0.0,4.0,94,0.04,,,0.08,,2013-06-07 08:12:00,
2013-06-07 04:22:00,59.0,57.0,29.93,NE,55,2.0,8.0,94,0.05,,,0.09,,2013-06-07 08:22:00,
2013-06-07 04:32:00,59.0,57.0,29.93,NE,47,2.0,6.0,94,0.01,,,0.10,,2013-06-07 08:32:00,
2013-06-07 04:43:00,59.0,57.0,29.93,NE,47,2.0,6.0,94,0.01,,,0.10,,2013-06-07 08:43:00,
2013-06-07 04:52:00,59.0,57.0,29.93,ESE,122,1.0,6.0,94,0.02,,,0.11,,2013-06-07 08:52:00,
2013-06-07 05:02:00,58.0,56.0,29.93,ESE,103,2.0,6.0,94,0.02,,,0.11,,2013-06-07 09:02:00,
2013-06-07 05:12:00,58.0,56.0,29.93,ESE,103,2.0,6.0,94,0.02,,,0.11,,2013-06-07 09:12:00,
2013-06-07 05:22:00,58.0,56.0,29.92,ENE,74,3.0,7.0,94,0.03,,,0.12,,2013-06-07 09:22:00,
2013-06-07 05:32:00,58.0,56.0,29.92,ENE,64,2.0,12.0,94,0.01,,,0.13,,2013-06-07 09:32:00,
2013-06-07 05:43:00,58.0,56.0,29.92,ENE,64,2.0,12.0,94,0.01,,,0.13,,2013-06-07 09:43:00,
2013-06-07 05:53:00,58.0,56.0,29.92,NE,47,2.0,11.0,94,0.02,,,0.14,,2013-06-07 09:53:00,
2013-06-07 06:03:00,58.0,56.0,29.92,East,86,3.0,8.0,94,0.07,,,0.19,,2013-06-07 10:03:00,
2013-06-07 06:13:00,58.0,56.0,29.92,East,86,3.0,8.0,94,0.07,,,0.19,,2013-06-07 10:13:00,
2013-06-07 06:23:00,58.0,56.0,29.92,East,81,1.0,7.0,94,0.11,,,0.23,,2013-06-07 10:23:00,
2013-06-07 06:33:00,58.0,56.0,29.92,NE,48,3.0,10.0,94,0.05,,,0.28,,2013-06-07 10:33:00,
2013-06-07 06:42:00,58.0,56.0,29.92,NE,48,3.0,10.0,94,0.05,,,0.28,,2013-06-07 10:42:00,
2013-06-07 06:52:00,57.0,55.0,29.92,ESE,114,2.0,10.0,94,0.07,,,0.30,,2013-06-07 10:52:00,
2013-06-07 07:02:00,57.0,55.0,29.92,NE,43,4.0,10.0,94,0.09,,,0.32,,2013-06-07 11:02:00,
2013-06-07 07:12:00,57.0,55.0,29.92,NE,43,4.0,10.0,94,0.09,,,0.32,,2013-06-07 11:12:00,
2013-06-07 07:22:00,57.0,55.0,29.91,SSE,150,3.0,10.0,94,0.00,,,0.33,,2013-06-07 11:22:00,
2013-06-07 07:32:00,57.0,55.0,29.91,ENE,72,2.0,11.0,94,0.02,,,0.35,,2013-06-07 11:32:00,
2013-06-07 07:42:00,57.0,55.0,29.91,ENE,72,2.0,11.0,94,0.02,,,0.35,,2013-06-07 11:42:00,
2013-06-07 07:52:00,57.0,55.0,29.91,ENE,75,2.0,10.0,94,0.02,,,0.35,,2013-06-07 11:52:00,
2013-06-07 08:02:00,57.0,56.0,29.91,NE,50,4.0,11.0,95,0.06,,,0.39,,2013-06-07 12:02:00,
2013-06-07 08:12:00,57.0,56.0,29.91,NE,50,4.0,11.0,95,0.06,,,0.39,,2013-06-07 12:12:00,
2013-06-07 08:22:00,57.0,56.0,29.90,ENE,67,3.0,11.0,95,0.07,,,0.40,,2013-06-07 12:22:00,
2013-06-07 08:32:00,57.0,56.0,29.90,NE,51,3.0,7.0,95,0.01,,,0.41,,2013-06-07 12:32:00,
2013-06-07 08:42:00,57.0,56.0,29.90,NE,51,3.0,7.0,95,0.01,,,0.41,,2013-06-07 12:42:00,
2013-06-07 08:52:00,57.0,56.0,29.90,ENE,60,3.0,12.0,95,0.01,,,0.00,,2013-06-07 12:52:00,
2013-06-07 09:02:00,58.0,57.0,29.90,ENE,74,4.0,11.0,95,0.02,,,0.01,,2013-06-07 13:02:00,
2013-06-07 09:13:00,58.0,57.0,29.90,ENE,74,4.0,11.0,95,0.02,,,0.01,,2013-06-07 13:13:00,
2013-06-07 09:22:00,58.0,57.0,29.90,ENE,76,2.0,11.0,95,0.02,,,0.01,,2013-06-07 13:22:00,
2013-06-07 09:32:00,58.0,57.0,29.90,ENE,77,2.0,8.0,95,0.02,,,0.03,,2013-06-07 13:32:00,
2013-06-07 09:42:00,58.0,57.0,29.90,ENE,77,2.0,8.0,95,0.02,,,0.03,,2013-06-07 13:42:00,
2013-06-07 09:52:00,58.0,57.0,29.89,NE,56,3.0,7.0,95,0.03,,,0.04,,2013-06-07 13:52:00,
2013-06-07 10:02:00,59.0,58.0,29.90,East,83,3.0,9.0,95,0.05,,,0.06,,2013-06-07 14:02:00,
2013-06-07 10:12:00,59.0,58.0,29.90,East,83,3.0,9.0,95,0.05,,,0.06,,2013-06-07 14:12:00,
2013-06-07 10:23:00,59.0,58.0,29.89,East,83,1.0,8.0,95,0.06,,,0.07,,2013-06-07 14:23:00,
2013-06-07 10:33:00,59.0,58.0,29.89,East,79,2.0,7.0,95,0.01,,,0.08,,2013-06-07 14:33:00,
2013-06-07 10:42:00,59.0,58.0,29.89,East,79,2.0,7.0,95,0.01,,,0.08,,2013-06-07 14:42:00,
2013-06-07 10:52:00,59.0,58.0,29.89,ENE,78,4.0,8.0,95,0.03,,,0.10,,2013-06-07 14:52:00,
2013-06-07 11:02:00,60.0,59.0,29.88,ENE,58,4.0,14.0,95,0.07,,,0.14,,2013-06-07 15:02:00,
2013-06-07 11:12:00,60.0,59.0,29.88,ENE,58,4.0,14.0,95,0.07,,,0.14,,2013-06-07 15:12:00,
2013-06-07 11:23:00,60.0,59.0,29.88,NE,53,3.0,11.0,95,0.00,,,0.16,,2013-06-07 15:23:00,
2013-06-07 11:33:00,60.0,59.0,29.88,ENE,62,3.0,9.0,95,0.02,,,0.18,,2013-06-07 15:33:00,
2013-06-07 11:43:00,60.0,59.0,29.88,ENE,62,3.0,9.0,95,0.02,,,0.18,,2013-06-07 15:43:00,
2013-06-07 11:53:00,60.0,59.0,29.88,ENE,60,3.0,11.0,95,0.04,,,0.20,,2013-06-07 15:53:00,
2013-06-07 12:03:00,60.0,59.0,29.88,NE,55,5.0,12.0,95,0.05,,,0.21,,2013-06-07 16:03:00,
2013-06-07 12:13:00,60.0,59.0,29.88,NE,55,5.0,12.0,95,0.05,,,0.21,,2013-06-07 16:13:00,
2013-06-07 12:22:00,60.0,59.0,29.87,ENE,63,5.0,11.0,95,0.06,,,0.22,,2013-06-07 16:22:00,
2013-06-07 12:33:00,60.0,59.0,29.86,ENE,57,6.0,12.0,95,0.02,,,0.24,,2013-06-07 16:33:00,
2013-06-07 12:43:00,60.0,59.0,29.86,ENE,57,6.0,12.0,95,0.02,,,0.24,,2013-06-07 16:43:00,
2013-06-07 12:52:00,60.0,59.0,29.86,ENE,69,5.0,11.0,96,0.03,,,0.25,,2013-06-07 16:52:00,
2013-06-07 13:03:00,60.0,59.0,29.86,ENE,59,4.0,15.0,96,0.06,,,0.28,,2013-06-07 17:03:00,
2013-06-07 13:13:00,60.0,59.0,29.86,ENE,59,4.0,15.0,96,0.06,,,0.28,,2013-06-07 17:13:00,
2013-06-07 13:23:00,60.0,59.0,29.86,ENE,64,1.0,8.0,96,0.07,,,0.29,,2013-06-07 17:23:00,
2013-06-07 13:32:00,60.0,59.0,29.85,East,80,2.0,12.0,96,0.04,,,0.33,,2013-06-07 17:32:00,
2013-06-07 13:43:00,60.0,59.0,29.85,East,80,2.0,12.0,96,0.04,,,0.33,,2013-06-07 17:43:00,
2013-06-07 13:52:00,60.0,59.0,29.85,NE,53,4.0,12.0,96,0.06,,,0.35,,2013-06-07 17:52:00,
2013-06-07 14:08:00,60.0,59.0,29.85,SSE,154,1.0,9.0,96,0.10,,,0.39,,2013-06-07 18:08:00,
2013-06-07 14:20:00,60.0,59.0,29.85,SSE,154,1.0,9.0,96,0.10,,,0.39,,2013-06-07 18:20:00,
2013-06-07 14:25:00,60.0,59.0,29.85,ENE,70,2.0,9.0,96,0.11,,,0.40,,2013-06-07 18:25:00,
2013-06-07 14:45:00,60.0,59.0,29.85,East,85,4.0,11.0,95,0.05,,,0.45,,2013-06-07 18:45:00,
2013-06-07 14:56:00,60.0,59.0,29.85,East,84,2.0,8.0,96,0.07,,,0.47,,2013-06-07 18:56:00,
2013-06-07 15:08:00,60.0,59.0,29.85,NE,42,1.0,9.0,96,0.11,,,0.51,,2013-06-07 19:08:00,
2013-06-07 15:15:00,60.0,59.0,29.85,NE,42,1.0,9.0,96,0.11,,,0.51,,2013-06-07 19:15:00,
2013-06-07 15:28:00,59.0,58.0,29.84,NE,56,1.0,11.0,96,0.13,,,0.53,,2013-06-07 19:28:00,
2013-06-07 15:37:00,60.0,59.0,29.83,ENE,76,1.0,6.0,96,0.03,,,0.56,,2013-06-07 19:37:00,
2013-06-07 15:48:00,60.0,59.0,29.83,ENE,76,1.0,6.0,96,0.03,,,0.56,,2013-06-07 19:48:00,
2013-06-07 16:07:00,59.0,58.0,29.82,NE,51,1.0,7.0,96,0.05,,,0.58,,2013-06-07 20:07:00,
2013-06-07 16:38:00,59.0,58.0,29.81,ENE,76,2.0,8.0,96,0.04,,,0.64,,2013-06-07 20:38:00,
2013-06-07 16:47:00,59.0,58.0,29.81,ENE,76,2.0,8.0,96,0.04,,,0.64,,2013-06-07 20:47:00,
2013-06-07 16:58:00,59.0,58.0,29.80,NE,56,1.0,9.0,96,0.08,,,0.68,,2013-06-07 20:58:00,
2013-06-07 17:05:00,59.0,58.0,29.79,ENE,68,3.0,10.0,96,0.12,,,0.72,,2013-06-07 21:05:00,
2013-06-07 17:19:00,59.0,58.0,29.79,ENE,68,3.0,10.0,96,0.12,,,0.72,,2013-06-07 21:19:00,
2013-06-07 17:28:00,60.0,59.0,29.78,NE,56,4.0,10.0,96,0.15,,,0.75,,2013-06-07 21:28:00,
2013-06-07 17:39:00,60.0,59.0,29.77,ENE,71,4.0,10.0,96,0.05,,,0.80,,2013-06-07 21:39:00,
2013-06-07 17:45:00,60.0,59.0,29.77,ENE,71,4.0,10.0,96,0.05,,,0.80,,2013-06-07 21:45:00,
2013-06-07 17:55:00,60.0,59.0,29.75,ENE,61,4.0,11.0,96,0.07,,,0.82,,2013-06-07 21:55:00,
2013-06-07 18:08:00,60.0,59.0,29.75,ENE,59,3.0,13.0,96,0.09,,,0.84,,2013-06-07 22:08:00,
2013-06-07 18:22:00,60.0,59.0,29.75,ENE,59,3.0,13.0,96,0.09,,,0.84,,2013-06-07 22:22:00,
2013-06-07 18:28:00,60.0,59.0,29.74,ENE,64,2.0,11.0,96,0.09,,,0.84,,2013-06-07 22:28:00,
2013-06-07 18:38:00,60.0,59.0,29.75,NNE,31,3.0,6.0,96,0.01,,,0.85,,2013-06-07 22:38:00,
2013-06-07 18:47:00,60.0,59.0,29.75,NNE,31,3.0,6.0,96,0.01,,,0.85,,2013-06-07 22:47:00,
2013-06-07 18:55:00,60.0,59.0,29.74,ENE,68,3.0,13.0,96,0.03,,,0.87,,2013-06-07 22:55:00,
2013-06-07 19:09:00,60.0,59.0,29.74,ENE,76,2.0,9.0,96,0.05,,,0.89,,2013-06-07 23:09:00,
2013-06-07 19:19:00,60.0,59.0,29.74,ENE,76,2.0,9.0,96,0.05,,,0.89,,2013-06-07 23:19:00,
2013-06-07 19:29:00,60.0,59.0,29.73,ENE,78,2.0,8.0,96,0.07,,,0.91,,2013-06-07 23:29:00,
2013-06-07 19:37:00,60.0,59.0,29.73,NE,56,4.0,9.0,96,0.07,,,0.98,,2013-06-07 23:37:00,
2013-06-07 19:50:00,60.0,59.0,29.73,NE,56,4.0,9.0,96,0.07,,,0.98,,2013-06-07 23:50:00,
2013-06-07 19:56:00,60.0,59.0,29.73,ENE,69,3.0,8.0,96,0.09,,,1.00,,2013-06-07 23:56:00,
2013-06-07 20:12:00,60.0,59.0,29.72,ENE,76,3.0,9.0,96,0.12,,,1.03,,2013-06-08 00:12:00,
2013-06-07 20:18:00,60.0,59.0,29.72,NE,55,2.0,9.0,96,0.12,,,1.03,,2013-06-08 00:18:00,
2013-06-07 20:34:00,60.0,59.0,29.72,ENE,78,4.0,10.0,96,0.01,,,1.04,,2013-06-08 00:34:00,
2013-06-07 20:45:00,60.0,59.0,29.72,ENE,78,4.0,10.0,96,0.01,,,1.04,,2013-06-08 00:45:00,
2013-06-07 20:55:00,60.0,59.0,29.72,NE,56,3.0,9.0,96,0.02,,,1.05,,2013-06-08 00:55:00,
2013-06-07 21:07:00,60.0,59.0,29.71,NE,49,2.0,15.0,96,0.07,,,1.10,,2013-06-08 01:07:00,
2013-06-07 21:19:00,60.0,59.0,29.71,NE,49,2.0,15.0,96,0.07,,,1.10,,2013-06-08 01:19:00,
2013-06-07 21:28:00,60.0,59.0,29.71,ENE,63,2.0,14.0,96,0.09,,,1.12,,2013-06-08 01:28:00,
2013-06-07 21:38:00,60.0,59.0,29.70,ENE,74,4.0,12.0,96,0.10,,,1.22,,2013-06-08 01:38:00,
2013-06-07 21:45:00,60.0,59.0,29.70,ENE,74,4.0,12.0,96,0.10,,,1.22,,2013-06-08 01:45:00,
2013-06-07 21:56:00,59.0,58.0,29.71,NE,53,2.0,7.0,96,0.14,,,1.26,,2013-06-08 01:56:00,
2013-06-07 22:09:00,59.0,58.0,29.71,NE,50,2.0,9.0,96,0.27,,,1.39,,2013-06-08 02:09:00,
2013-06-07 22:15:00,59.0,58.0,29.71,NE,50,2.0,9.0,96,0.27,,,1.39,,2013-06-08 02:15:00,
2013-06-07 22:29:00,59.0,58.0,29.70,East,86,1.0,8.0,96,0.32,,,1.44,,2013-06-08 02:29:00,
2013-06-07 22:35:00,59.0,58.0,29.69,NE,46,3.0,8.0,96,0.05,,,1.49,,2013-06-08 02:35:00,
2013-06-07 22:47:00,59.0,58.0,29.69,NE,46,3.0,8.0,96,0.05,,,1.49,,2013-06-08 02:47:00,
2013-06-07 22:54:00,58.0,57.0,29.69,East,82,1.0,7.0,96,0.06,,,1.50,,2013-06-08 02:54:00,
2013-06-07 23:09:00,58.0,57.0,29.69,NE,42,3.0,11.0,96,0.20,,,1.64,,2013-06-08 03:09:00,
2013-06-07 23:17:00,58.0,57.0,29.69,NE,42,3.0,11.0,96,0.20,,,1.64,,2013-06-08 03:17:00,
2013-06-07 23:27:00,58.0,57.0,29.67,ENE,61,4.0,10.0,96,0.25,,,1.69,,2013-06-08 03:27:00,
2013-06-07 23:37:00,58.0,57.0,29.67,NE,55,1.0,9.0,96,0.08,,,1.77,,2013-06-08 03:37:00,
2013-06-07 23:52:00,58.0,57.0,29.67,NE,55,1.0,9.0,96,0.08,,,1.77,,2013-06-08 03:52:00,